Wind_Speed
18 17 14 13 12 10 9 7 7 7 8 10 13 16 18 22 24 27 30 32 33 33 33 34 34 33 33 34 34 35 35 36 36 36 35 34 33 33 33 33 33 33 33
19 18 16 15 14 13 11 10 9 7 7 8 9 12 15 18 20 23 26 29 30 32 32 32 33 33 34 35 35 35 35 35 36 35 35 35 35 35 34 34 34 33 33
20 19 18 16 16 15 14 13 11 9 7 7 8 9 11 14 17 19 22 25 26 27 29 30 31 31 32 33 34 35 34 33 33 34 34 34 33 33 33 33 33 32 31
21 20 19 18 17 16 15 14 13 11 9 8 7 6 8 10 12 15 17 20 22 23 25 26 27 29 29 30 31 31 31 32 31 31 31 31 31 31 31 31 31 31 30
23 22 21 20 18 17 17 16 15 13 11 9 7 6 6 7 9 12 14 16 18 20 22 23 24 25 26 27 28 28 28 28 28 27 27 27 28 28 28 28 28 28 28
23 23 23 22 21 20 19 18 17 15 14 12 9 7 5 5 6 9 11 13 14 16 18 20 22 23 24 25 25 25 24 24 25 25 25 25 26 26 26 26 25 25 25
23 23 23 23 22 21 21 20 18 17 16 14 11 8 6 5 5 6 9 10 12 14 16 17 18 19 21 22 22 21 20 21 21 22 22 22 24 24 24 23 23 23 23
24 24 24 23 23 22 22 21 21 19 18 16 14 11 9 7 5 4 5 7 9 11 13 14 15 16 17 17 18 19 19 19 19 20 20 20 21 22 22 22 22 22 22
24 24 25 24 24 23 23 22 22 21 20 18 16 14 12 9 7 4 3 3 5 8 10 11 12 13 14 14 15 16 16 17 17 17 18 18 19 19 20 21 21 21 21
24 24 25 25 24 24 23 23 22 22 22 20 18 17 15 13 10 7 5 2 2 4 6 8 10 11 11 11 12 13 14 14 15 15 15 15 15 16 17 17 18 19 18
22 24 25 25 24 24 24 24 23 23 23 22 20 19 18 16 14 12 10 8 7 5 5 6 7 9 10 10 10 10 11 12 12 12 12 12 13 13 13 13 13 14 15
20 22 23 23 24 24 24 24 24 24 23 23 22 21 20 19 17 16 14 13 11 9 8 7 7 7 8 10 10 10 10 10 11 11 11 11 11 11 12 12 12 13 13
18 19 20 21 22 23 24 24 24 24 24 23 23 22 21 20 19 17 17 16 15 13 11 10 9 9 9 10 10 9 10 10 10 10 10 10 10 10 11 11 12 12 11
16 17 17 18 19 21 22 23 23 23 23 23 23 22 22 21 20 19 18 17 17 16 14 12 11 11 10 10 9 9 9 9 9 9 9 9 9 9 9 9 9 9 10
14 14 15 15 16 17 19 20 21 21 21 21 22 22 21 20 20 19 18 17 16 16 15 14 13 12 11 11 10 10 10 10 9 8 8 8 8 7 7 7 7 8 8
12 12 13 13 14 14 15 16 17 19 19 19 19 20 20 20 19 18 17 16 16 15 14 13 13 12 12 11 11 10 10 9 9 9 8 7 7 7 7 7 7 7 7
12 11 11 11 11 12 12 13 13 14 15 16 17 17 17 17 17 17 16 16 15 15 14 13 13 12 11 10 10 9 8 8 8 8 7 7 7 6 6 6 5 5 5
12 12 11 11 10 10 10 10 10 11 11 12 13 13 14 14 14 15 15 14 14 13 13 12 12 11 10 9 9 9 8 8 8 8 7 7 6 6 6 5 5 4 5
13 13 12 12 11 10 10 9 9 8 8 9 9 10 10 11 11 12 12 12 11 11 11 10 10 10 9 9 8 8 8 7 6 6 6 6 5 5 5 5 4 4 4
16 15 14 14 13 12 11 10 9 9 8 7 7 7 7 7 8 8 9 9 9 9 9 8 8 7 7 7 7 6 6 5 5 5 5 5 4 4 3 3 3 3 3
19 18 17 16 15 14 13 12 11 10 9 9 8 7 6 6 5 5 5 6 6 6 6 6 6 5 5 4 4 4 4 3 3 3 3 3 3 3 2 2 2 2 3
24 22 21 20 19 18 16 15 14 13 12 11 10 9 8 7 6 6 5 4 4 4 4 4 3 3 3 2 2 1 1 1 1 1 1 2 2 2 2 3 3 3 4
28 27 25 24 22 21 20 19 17 16 15 14 13 12 11 11 9 8 8 7 7 6 5 5 4 3 3 3 2 2 2 2 2 2 3 3 3 4 4 5 5 6 6
32 31 29 28 27 25 24 22 21 20 19 18 17 16 15 14 13 12 11 11 10 9 9 8 8 7 7 7 6 6 6 6 6 6 6 6 7 7 7 8 8 9 9
36 35 34 32 31 30 28 26 25 24 23 21 20 19 18 17 16 16 15 14 13 13 12 12 11 11 10 10 10 9 9 9 9 10 10 10 10 10 11 11 11 12 12
40 39 38 36 35 34 32 31 29 28 26 25 24 23 22 21 19 19 18 17 17 16 15 15 15 14 14 14 14 13 13 13 13 13 13 13 14 14 14 15 15 16 16
Wind_Direction
22 20 20 17 14 10 2 347 331 296 269 256 248 244 239 235 232 230 230 231 234 235 235 233 232 232 233 235 237 238 240 240 241 243 243 245 247 247 247 249 252 255 258
25 26 28 27 23 20 12 2 348 329 300 279 267 257 246 242 237 234 235 234 234 234 236 235 233 233 235 237 239 239 241 242 243 243 244 247 248 248 249 251 253 255 257
30 29 28 26 24 22 18 13 7 354 339 315 289 271 258 250 242 238 237 236 237 236 236 237 237 238 239 238 239 240 241 243 244 244 246 247 248 248 249 250 252 254 256
29 28 27 25 22 19 17 15 12 6 357 343 324 294 270 256 249 244 242 242 240 239 239 239 239 239 240 239 238 238 240 242 243 245 247 247 246 247 248 248 249 251 253
31 30 29 27 25 23 21 18 16 14 9 359 347 322 296 272 257 250 246 244 241 240 239 240 240 240 241 240 239 239 240 240 241 243 245 246 245 245 245 246 248 250 254
31 31 30 29 28 26 24 21 19 17 13 6 358 343 320 299 276 258 249 246 243 240 238 238 238 239 240 241 240 241 240 240 240 241 242 243 243 244 244 245 246 248 250
30 29 28 28 27 26 24 23 21 19 17 13 10 5 355 337 306 276 258 248 243 239 236 236 236 234 235 235 237 239 239 238 238 239 239 240 240 241 241 241 242 243 245
28 28 28 27 27 26 26 26 26 25 23 22 20 17 9 360 340 308 274 252 240 233 230 232 231 231 232 234 237 236 235 235 236 235 236 238 238 238 236 235 236 239 243
29 28 28 28 28 29 29 30 30 29 28 28 28 27 25 21 16 3 333 260 233 225 222 221 224 227 226 228 229 228 225 226 228 230 233 235 236 236 237 237 238 239 239
29 29 29 30 31 32 32 33 33 32 33 33 34 35 33 32 34 36 37 54 158 189 197 203 207 210 210 213 217 216 216 218 219 219 219 222 226 228 231 234 237 233 233
27 28 29 31 32 33 34 35 34 35 36 37 39 39 39 41 46 48 53 64 80 109 136 167 183 185 191 195 200 202 203 205 207 207 208 213 216 220 222 225 227 227 228
26 27 29 31 32 34 34 36 37 38 39 41 42 42 44 46 50 54 60 66 74 85 102 119 142 160 165 172 179 183 187 189 191 196 200 204 208 213 218 220 217 215 217
23 25 28 30 32 34 35 37 38 40 42 43 44 46 48 49 51 57 62 66 72 76 86 100 112 124 137 144 148 156 163 174 184 187 190 197 205 210 210 208 205 208 211
18 22 25 27 29 32 34 36 38 40 42 44 45 47 49 51 54 57 61 66 70 74 80 88 99 106 116 126 133 138 145 153 160 169 178 187 193 195 194 192 195 202 205
9 14 18 21 24 27 31 34 36 39 41 44 46 48 50 52 55 57 59 62 66 71 77 84 93 100 108 117 123 128 134 138 141 146 151 161 170 175 181 185 191 195 199
356 0 5 10 15 19 23 28 33 37 39 42 45 47 49 51 54 55 58 62 66 71 77 82 87 93 100 108 116 121 123 125 126 129 132 139 150 159 166 174 176 183 192
339 344 349 355 1 6 12 18 24 31 35 38 41 44 47 50 52 54 57 61 65 70 75 79 83 87 92 99 104 109 114 117 119 123 126 129 136 143 149 155 163 176 187
322 326 331 336 341 347 354 1 8 15 23 29 33 37 41 45 48 51 54 57 61 66 71 75 78 80 85 92 97 100 104 110 115 119 121 124 129 136 142 143 144 151 166
306 310 313 318 322 326 331 337 343 350 359 9 18 25 31 36 40 44 47 51 55 60 64 67 71 74 80 86 92 95 99 105 112 118 123 127 130 133 136 140 143 147 158
292 294 298 301 305 308 311 315 320 324 328 336 346 357 7 17 25 32 38 43 48 52 56 59 64 69 74 79 86 91 94 97 104 113 123 129 133 137 142 146 150 157 169
282 283 285 287 290 293 296 298 301 304 307 310 315 320 328 338 347 359 13 25 33 39 43 47 52 60 67 72 76 77 79 90 102 117 132 144 150 156 165 177 190 200 207
275 276 277 278 279 281 283 285 287 289 291 293 295 296 298 301 304 308 314 323 333 347 2 14 24 34 41 43 43 44 54 76 118 163 188 202 215 227 236 242 245 242 240
271 271 271 272 272 273 274 275 277 278 279 281 282 284 284 285 285 286 286 287 290 294 298 301 304 305 305 305 302 296 293 287 282 276 266 262 263 266 266 263 261 260 261
268 268 267 267 267 268 268 269 269 271 272 272 273 274 275 276 277 277 276 276 277 278 279 280 280 281 281 281 280 280 280 279 278 276 274 273 272 273 273 272 271 272 273
266 266 265 264 264 264 265 265 265 265 266 267 268 269 269 270 270 271 271 271 271 271 272 272 272 273 274 275 275 276 277 276 276 275 275 275 275 275 275 275 276 277 277
264 264 263 262 262 262 262 262 262 262 263 263 264 264 265 265 266 266 267 268 268 269 269 269 270 271 271 271 272 272 273 274 274 274 274 275 275 275 276 277 277 278 278
Height
5782 5778 5775 5771 5768 5766 5763 5761 5759 5758 5757 5756 5756 5756 5758 5760 5762 5765 5768 5772 5775 5778 5781 5785 5789 5793 5796 5800 5803 5807 5810 5813 5816 5819 5822 5825 5827 5830 5832 5834 5835 5836 5837
5784 5780 5776 5773 5770 5766 5763 5761 5759 5757 5755 5754 5753 5753 5754 5755 5757 5760 5762 5765 5768 5771 5774 5777 5781 5785 5789 5792 5795 5798 5801 5804 5807 5810 5813 5816 5819 5821 5823 5825 5827 5828 5829
5786 5782 5778 5774 5771 5767 5764 5761 5758 5756 5754 5752 5751 5751 5751 5752 5753 5755 5757 5759 5762 5765 5768 5771 5774 5777 5781 5784 5787 5790 5793 5796 5798 5801 5804 5807 5810 5812 5814 5816 5818 5820 5821
5789 5784 5780 5776 5772 5769 5765 5762 5759 5756 5753 5751 5749 5748 5748 5749 5750 5751 5752 5754 5756 5759 5761 5764 5767 5770 5773 5776 5779 5782 5785 5787 5790 5793 5796 5799 5801 5803 5806 5808 5810 5812 5813
5791 5787 5783 5779 5774 5770 5767 5763 5759 5756 5753 5750 5748 5747 5746 5746 5746 5747 5748 5750 5751 5753 5756 5758 5761 5763 5766 5769 5772 5775 5778 5780 5783 5786 5789 5791 5794 5796 5798 5800 5802 5804 5806
5795 5790 5786 5781 5777 5772 5768 5764 5760 5756 5753 5750 5747 5745 5744 5744 5743 5744 5744 5745 5747 5748 5750 5753 5755 5758 5761 5763 5766 5768 5771 5774 5776 5779 5782 5784 5787 5789 5792 5794 5796 5798 5799
5798 5793 5789 5784 5779 5775 5771 5766 5761 5757 5753 5750 5747 5744 5743 5742 5741 5741 5741 5742 5742 5744 5745 5748 5750 5752 5755 5757 5760 5763 5765 5768 5771 5774 5776 5778 5781 5783 5785 5788 5790 5792 5793
5801 5796 5792 5787 5782 5777 5773 5768 5764 5759 5755 5751 5748 5745 5743 5741 5740 5739 5738 5738 5739 5740 5742 5743 5746 5748 5750 5753 5755 5758 5761 5763 5766 5769 5771 5773 5775 5778 5780 5783 5784 5786 5788
5804 5800 5795 5790 5785 5781 5776 5771 5766 5762 5758 5753 5750 5746 5744 5741 5739 5737 5736 5736 5736 5737 5738 5740 5742 5744 5747 5749 5751 5754 5756 5759 5761 5764 5767 5769 5771 5773 5775 5777 5779 5781 5783
5808 5803 5798 5794 5789 5784 5779 5775 5770 5766 5761 5757 5753 5749 5746 5743 5740 5738 5736 5735 5735 5735 5737 5738 5740 5742 5744 5746 5748 5751 5753 5756 5758 5761 5763 5765 5767 5769 5771 5773 5775 5777 5778
5811 5807 5802 5797 5793 5788 5783 5779 5774 5769 5765 5760 5756 5752 5749 5745 5742 5740 5738 5737 5736 5736 5736 5737 5738 5740 5742 5744 5747 5749 5751 5754 5756 5758 5761 5763 5764 5767 5768 5770 5772 5774 5775
5814 5810 5806 5801 5797 5792 5788 5783 5778 5774 5770 5765 5761 5757 5753 5750 5746 5744 5741 5740 5739 5738 5738 5738 5739 5740 5742 5744 5746 5748 5750 5753 5755 5757 5759 5761 5763 5765 5766 5768 5769 5771 5773
5817 5813 5809 5805 5801 5796 5792 5787 5783 5779 5774 5770 5766 5762 5758 5755 5751 5749 5746 5744 5743 5742 5741 5741 5742 5743 5744 5746 5747 5749 5751 5752 5754 5756 5758 5760 5762 5763 5765 5766 5768 5769 5771
5819 5816 5812 5808 5805 5800 5796 5792 5788 5783 5779 5775 5771 5767 5764 5760 5757 5754 5752 5750 5748 5746 5746 5745 5745 5746 5747 5748 5749 5751 5752 5753 5754 5756 5757 5759 5761 5762 5763 5765 5766 5768 5769
5821 5818 5814 5811 5808 5804 5800 5796 5792 5788 5784 5780 5777 5773 5769 5766 5763 5760 5758 5755 5754 5752 5751 5750 5750 5750 5750 5751 5752 5753 5754 5755 5756 5757 5758 5759 5761 5762 5763 5764 5765 5767 5768
5822 5819 5816 5813 5810 5806 5803 5799 5796 5792 5789 5785 5782 5778 5775 5772 5768 5766 5763 5761 5759 5757 5756 5755 5754 5754 5754 5754 5755 5756 5756 5757 5758 5759 5760 5761 5762 5763 5763 5764 5765 5766 5767
5822 5819 5816 5814 5811 5808 5805 5802 5799 5796 5792 5789 5786 5783 5780 5777 5774 5771 5769 5767 5764 5763 5761 5760 5759 5758 5758 5758 5758 5759 5759 5759 5760 5761 5761 5762 5763 5764 5764 5765 5765 5766 5766
5821 5818 5816 5813 5811 5808 5806 5803 5800 5798 5795 5792 5789 5786 5784 5781 5778 5776 5774 5772 5770 5768 5766 5765 5764 5763 5762 5762 5761 5762 5762 5762 5762 5763 5763 5764 5764 5765 5765 5766 5766 5766 5767
5818 5816 5814 5812 5810 5807 5805 5803 5801 5799 5796 5794 5791 5789 5786 5784 5782 5779 5777 5775 5773 5772 5770 5769 5767 5766 5766 5765 5765 5764 5764 5764 5764 5765 5765 5765 5766 5766 5766 5767 5767 5767 5767
5814 5813 5811 5809 5807 5806 5804 5802 5800 5798 5796 5794 5792 5790 5788 5786 5784 5782 5780 5778 5776 5774 5773 5772 5771 5770 5769 5768 5767 5767 5767 5766 5766 5766 5766 5766 5767 5767 5767 5767 5767 5767 5767
5809 5808 5807 5805 5804 5802 5801 5799 5797 5796 5794 5793 5791 5789 5788 5786 5784 5783 5781 5779 5778 5776 5775 5774 5772 5772 5771 5770 5769 5769 5768 5768 5767 5767 5767 5767 5767 5767 5767 5767 5767 5767 5767
5803 5802 5801 5800 5799 5798 5796 5795 5794 5793 5791 5790 5789 5787 5786 5785 5783 5782 5781 5779 5778 5777 5775 5774 5773 5772 5772 5771 5770 5770 5769 5769 5768 5768 5768 5767 5767 5767 5767 5767 5766 5766 5766
5795 5795 5794 5793 5792 5791 5791 5790 5789 5788 5787 5786 5785 5784 5783 5782 5781 5780 5778 5777 5776 5775 5775 5774 5773 5772 5771 5770 5770 5769 5769 5768 5768 5767 5767 5767 5766 5766 5766 5765 5765 5765 5764
5786 5786 5785 5785 5784 5784 5783 5783 5782 5782 5781 5780 5780 5779 5778 5777 5777 5776 5775 5774 5774 5773 5772 5771 5771 5770 5769 5769 5768 5768 5767 5767 5766 5766 5765 5765 5764 5764 5764 5763 5763 5762 5762
5776 5776 5776 5776 5775 5775 5775 5775 5775 5774 5774 5774 5773 5773 5772 5772 5771 5771 5770 5770 5769 5769 5768 5768 5767 5767 5766 5766 5765 5764 5764 5763 5763 5763 5762 5762 5761 5761 5760 5760 5759 5759 5758
5764 5765 5765 5765 5765 5765 5765 5765 5766 5766 5766 5766 5765 5765 5765 5765 5765 5764 5764 5764 5764 5763 5763 5763 5762 5762 5762 5761 5761 5760 5760 5759 5759 5758 5758 5758 5757 5757 5756 5755 5755 5754 5753